Retour au catalogue

FREGAT DEB

TANK

ActifUNKNOWN
NORAD 37347·DEBRIS·🇷🇺 Russia

Lancé Jan 20, 2011 depuis Baikonur Cosmodrome

Loading…

Prochains Passages (prochaines 24 heures)

TLE

FraisSource: Space-Track

Époque: Sep 14, 2026, 14:04 UTC

1 37347U 11001D   26257.58635711  .00019916  53452-5  51884-3 0  9994
2 37347  50.3058 207.7457 1179839 271.1491  75.4764 13.21344684667741

Suivez FREGAT DEB en temps réel avec AllMySat

Download on the App Store